Time,TemperatureF,DewpointF,PressureIn,WindDirection,WindDirectionDegrees,WindSpeedMPH,WindSpeedGustMPH,Humidity,HourlyPrecipIn,Conditions,Clouds,dailyrainin,SoftwareType,DateUTC
2013-11-07 00:01:00,42.0,41.2,30.09,WNW,292,4.0,11.0,97,0.00,,,0.00,Weather View 32 v70,2013-11-07 05:01:00,
2013-11-07 00:02:00,42.0,40.9,30.09,NW,315,2.0,11.0,96,0.00,,,0.00,Weather View 32 v70,2013-11-07 05:02:00,
2013-11-07 00:06:00,42.0,41.2,30.09,WNW,292,2.0,11.0,97,0.00,,,0.00,Weather View 32 v70,2013-11-07 05:06:00,
2013-11-07 00:11:00,42.0,41.2,30.09,West,270,6.0,11.0,97,0.00,,,0.00,Weather View 32 v70,2013-11-07 05:11:00,
2013-11-07 00:16:00,42.0,41.2,30.09,NW,315,2.0,11.0,97,0.00,,,0.00,Weather View 32 v70,2013-11-07 05:16:00,
2013-11-07 00:21:00,42.0,41.2,30.09,WNW,292,8.0,11.0,97,0.00,,,0.00,Weather View 32 v70,2013-11-07 05:21:00,
2013-11-07 00:26:00,42.0,41.2,30.09,West,270,6.0,11.0,97,0.00,,,0.00,Weather View 32 v70,2013-11-07 05:26:00,
2013-11-07 00:31:00,42.0,41.2,30.09,WNW,292,5.0,11.0,97,0.00,,,0.00,Weather View 32 v70,2013-11-07 05:31:00,
2013-11-07 00:36:00,42.0,41.2,30.09,WNW,292,1.0,11.0,97,0.00,,,0.00,Weather View 32 v70,2013-11-07 05:36:00,
2013-11-07 00:41:00,42.0,40.9,30.10,West,270,3.0,11.0,96,0.00,,,0.00,Weather View 32 v70,2013-11-07 05:41:00,
2013-11-07 00:46:00,42.0,41.5,30.10,WNW,292,0.0,11.0,98,0.00,,,0.00,Weather View 32 v70,2013-11-07 05:46:00,
2013-11-07 00:51:00,42.0,41.2,30.10,NW,315,1.0,11.0,97,0.00,,,0.00,Weather View 32 v70,2013-11-07 05:51:00,
2013-11-07 00:56:00,41.0,40.2,30.10,NW,315,0.0,11.0,97,0.00,,,0.00,Weather View 32 v70,2013-11-07 05:56:00,
2013-11-07 01:01:00,41.0,40.2,30.10,WSW,247,1.0,11.0,97,0.00,,,0.00,Weather View 32 v70,2013-11-07 06:01:00,
2013-11-07 01:06:00,41.0,40.5,30.10,WNW,292,3.0,11.0,98,0.00,,,0.00,Weather View 32 v70,2013-11-07 06:06:00,
2013-11-07 01:11:00,41.0,40.2,30.09,West,270,3.0,10.0,97,0.00,,,0.00,Weather View 32 v70,2013-11-07 06:11:00,
2013-11-07 01:16:00,41.0,40.5,30.10,NW,315,1.0,10.0,98,0.00,,,0.00,Weather View 32 v70,2013-11-07 06:16:00,
2013-11-07 01:21:00,41.0,40.2,30.11,West,270,4.0,10.0,97,0.00,,,0.00,Weather View 32 v70,2013-11-07 06:21:00,
2013-11-07 01:26:00,41.0,40.2,30.11,West,270,7.0,10.0,97,0.00,,,0.00,Weather View 32 v70,2013-11-07 06:26:00,
2013-11-07 01:31:00,41.0,40.5,30.11,NW,315,0.0,10.0,98,0.00,,,0.00,Weather View 32 v70,2013-11-07 06:31:00,
2013-11-07 01:36:00,41.0,40.2,30.11,NW,315,6.0,10.0,97,0.00,,,0.00,Weather View 32 v70,2013-11-07 06:36:00,
2013-11-07 01:41:00,41.0,40.5,30.11,West,270,5.0,10.0,98,0.00,,,0.00,Weather View 32 v70,2013-11-07 06:41:00,
2013-11-07 01:46:00,41.0,40.5,30.11,West,270,4.0,10.0,98,0.00,,,0.00,Weather View 32 v70,2013-11-07 06:46:00,
2013-11-07 01:51:00,40.0,39.7,30.11,NW,315,3.0,10.0,99,0.00,,,0.00,Weather View 32 v70,2013-11-07 06:51:00,
2013-11-07 01:56:00,40.0,39.7,30.11,WNW,292,1.0,10.0,99,0.00,,,0.00,Weather View 32 v70,2013-11-07 06:56:00,
2013-11-07 02:01:00,40.0,39.7,30.11,West,270,0.0,9.0,99,0.00,,,0.00,Weather View 32 v70,2013-11-07 07:01:00,
2013-11-07 02:06:00,40.0,40.0,30.11,NW,315,2.0,9.0,100,0.00,,,0.00,Weather View 32 v70,2013-11-07 07:06:00,
2013-11-07 02:11:00,40.0,40.0,30.11,WNW,292,0.0,9.0,100,0.00,,,0.00,Weather View 32 v70,2013-11-07 07:11:00,
2013-11-07 02:16:00,40.0,39.7,30.11,West,270,5.0,9.0,99,0.00,,,0.00,Weather View 32 v70,2013-11-07 07:16:00,
2013-11-07 02:21:00,40.0,39.7,30.11,WNW,292,1.0,9.0,99,0.00,,,0.00,Weather View 32 v70,2013-11-07 07:21:00,
2013-11-07 02:26:00,40.0,39.7,30.11,West,270,4.0,9.0,99,0.00,,,0.00,Weather View 32 v70,2013-11-07 07:26:00,
2013-11-07 02:31:00,40.0,40.0,30.12,WNW,292,3.0,9.0,100,0.00,,,0.00,Weather View 32 v70,2013-11-07 07:31:00,
2013-11-07 02:36:00,40.0,39.7,30.12,WNW,292,3.0,8.0,99,0.00,,,0.00,Weather View 32 v70,2013-11-07 07:36:00,
2013-11-07 02:41:00,40.0,39.7,30.12,West,270,5.0,8.0,99,0.00,,,0.00,Weather View 32 v70,2013-11-07 07:41:00,
2013-11-07 02:46:00,40.0,39.5,30.12,West,270,5.0,8.0,98,0.00,,,0.00,Weather View 32 v70,2013-11-07 07:46:00,
2013-11-07 02:51:00,40.0,39.7,30.12,WNW,292,3.0,8.0,99,0.00,,,0.00,Weather View 32 v70,2013-11-07 07:51:00,
2013-11-07 02:56:00,41.0,40.2,30.12,West,270,3.0,8.0,97,0.00,,,0.00,Weather View 32 v70,2013-11-07 07:56:00,
2013-11-07 03:01:00,41.0,40.2,30.12,WNW,292,1.0,8.0,97,0.00,,,0.00,Weather View 32 v70,2013-11-07 08:01:00,
2013-11-07 03:06:00,41.0,40.2,30.12,West,270,3.0,8.0,97,0.00,,,0.00,Weather View 32 v70,2013-11-07 08:06:00,
2013-11-07 03:11:00,41.0,40.5,30.13,NW,315,3.0,8.0,98,0.00,,,0.00,Weather View 32 v70,2013-11-07 08:11:00,
2013-11-07 03:16:00,41.0,40.2,30.12,West,270,2.0,8.0,97,0.00,,,0.00,Weather View 32 v70,2013-11-07 08:16:00,
2013-11-07 03:21:00,41.0,40.2,30.12,NW,315,4.0,8.0,97,0.00,,,0.00,Weather View 32 v70,2013-11-07 08:21:00,
2013-11-07 03:26:00,40.0,39.7,30.12,NW,315,1.0,8.0,99,0.00,,,0.00,Weather View 32 v70,2013-11-07 08:26:00,
2013-11-07 03:31:00,40.0,39.7,30.12,WNW,292,2.0,9.0,99,0.00,,,0.00,Weather View 32 v70,2013-11-07 08:31:00,
2013-11-07 03:36:00,40.0,39.7,30.12,WNW,292,4.0,9.0,99,0.00,,,0.00,Weather View 32 v70,2013-11-07 08:36:00,
2013-11-07 03:41:00,40.0,40.0,30.12,WNW,292,3.0,9.0,100,0.00,,,0.00,Weather View 32 v70,2013-11-07 08:41:00,
2013-11-07 03:46:00,40.0,40.0,30.12,NW,315,2.0,9.0,100,0.00,,,0.00,Weather View 32 v70,2013-11-07 08:46:00,
2013-11-07 03:51:00,39.0,39.0,30.12,West,270,0.0,9.0,100,0.00,,,0.00,Weather View 32 v70,2013-11-07 08:51:00,
2013-11-07 03:56:00,39.0,39.0,30.13,WNW,292,1.0,9.0,100,0.00,,,0.00,Weather View 32 v70,2013-11-07 08:56:00,
2013-11-07 04:01:00,39.0,39.0,30.13,WNW,292,2.0,9.0,100,0.00,,,0.00,Weather View 32 v70,2013-11-07 09:01:00,
2013-11-07 04:06:00,39.0,39.0,30.13,West,270,2.0,9.0,100,0.00,,,0.00,Weather View 32 v70,2013-11-07 09:06:00,
2013-11-07 04:11:00,39.0,39.0,30.13,West,270,3.0,9.0,100,0.00,,,0.00,Weather View 32 v70,2013-11-07 09:11:00,
2013-11-07 04:16:00,39.0,39.0,30.13,West,270,3.0,9.0,100,0.00,,,0.00,Weather View 32 v70,2013-11-07 09:16:00,
2013-11-07 04:21:00,38.0,38.0,30.14,NW,315,0.0,9.0,100,0.00,,,0.00,Weather View 32 v70,2013-11-07 09:21:00,
2013-11-07 04:26:00,38.0,38.0,30.14,NW,315,0.0,9.0,100,0.00,,,0.00,Weather View 32 v70,2013-11-07 09:26:00,
2013-11-07 04:31:00,38.0,38.0,30.14,NW,315,2.0,7.0,100,0.00,,,0.00,Weather View 32 v70,2013-11-07 09:31:00,
2013-11-07 04:36:00,38.0,38.0,30.14,NNW,337,0.0,7.0,100,0.00,,,0.00,Weather View 32 v70,2013-11-07 09:36:00,
2013-11-07 04:41:00,38.0,38.0,30.14,WNW,292,3.0,7.0,100,0.00,,,0.00,Weather View 32 v70,2013-11-07 09:41:00,
2013-11-07 04:46:00,38.0,38.0,30.14,WNW,292,0.0,7.0,100,0.00,,,0.00,Weather View 32 v70,2013-11-07 09:46:00,
2013-11-07 04:51:00,37.0,37.0,30.14,WNW,292,4.0,7.0,100,0.00,,,0.00,Weather View 32 v70,2013-11-07 09:51:00,
2013-11-07 04:56:00,37.0,37.0,30.14,WNW,292,1.0,7.0,100,0.00,,,0.00,Weather View 32 v70,2013-11-07 09:56:00,
2013-11-07 05:01:00,37.0,37.0,30.14,WNW,292,6.0,7.0,100,0.00,,,0.00,Weather View 32 v70,2013-11-07 10:01:00,
2013-11-07 05:06:00,37.0,37.0,30.15,WNW,292,0.0,7.0,100,0.00,,,0.00,Weather View 32 v70,2013-11-07 10:06:00,
2013-11-07 05:11:00,37.0,37.0,30.15,NW,315,2.0,7.0,100,0.00,,,0.00,Weather View 32 v70,2013-11-07 10:11:00,
2013-11-07 05:16:00,36.0,36.0,30.14,NW,315,0.0,7.0,100,0.00,,,0.00,Weather View 32 v70,2013-11-07 10:16:00,
2013-11-07 05:21:00,36.0,36.0,30.15,West,270,0.0,7.0,100,0.00,,,0.00,Weather View 32 v70,2013-11-07 10:21:00,
2013-11-07 05:26:00,36.0,36.0,30.15,WNW,292,0.0,7.0,100,0.00,,,0.00,Weather View 32 v70,2013-11-07 10:26:00,
2013-11-07 05:31:00,36.0,36.0,30.15,NW,315,3.0,7.0,100,0.00,,,0.00,Weather View 32 v70,2013-11-07 10:31:00,
2013-11-07 05:36:00,36.0,36.0,30.15,West,270,4.0,7.0,100,0.00,,,0.00,Weather View 32 v70,2013-11-07 10:36:00,
2013-11-07 05:41:00,36.0,36.0,30.15,WNW,292,1.0,6.0,100,0.00,,,0.00,Weather View 32 v70,2013-11-07 10:41:00,
2013-11-07 05:46:00,35.0,35.0,30.15,WNW,292,3.0,7.0,100,0.00,,,0.00,Weather View 32 v70,2013-11-07 10:46:00,
2013-11-07 05:51:00,35.0,35.0,30.16,WNW,292,2.0,7.0,100,0.00,,,0.00,Weather View 32 v70,2013-11-07 10:51:00,
2013-11-07 05:56:00,35.0,35.0,30.16,West,270,2.0,7.0,100,0.00,,,0.00,Weather View 32 v70,2013-11-07 10:56:00,
2013-11-07 06:01:00,35.0,35.0,30.16,West,270,1.0,7.0,100,0.00,,,0.00,Weather View 32 v70,2013-11-07 11:01:00,
2013-11-07 06:06:00,35.0,35.0,30.16,West,270,0.0,7.0,100,0.00,,,0.00,Weather View 32 v70,2013-11-07 11:06:00,
2013-11-07 06:11:00,34.0,34.0,30.16,NW,315,2.0,7.0,100,0.00,,,0.00,Weather View 32 v70,2013-11-07 11:11:00,
2013-11-07 06:16:00,34.0,34.0,30.16,WNW,292,4.0,7.0,100,0.00,,,0.00,Weather View 32 v70,2013-11-07 11:16:00,
2013-11-07 06:21:00,34.0,34.0,30.17,WNW,292,0.0,7.0,100,0.00,,,0.00,Weather View 32 v70,2013-11-07 11:21:00,
2013-11-07 06:26:00,34.0,34.0,30.17,WNW,292,0.0,7.0,100,0.00,,,0.00,Weather View 32 v70,2013-11-07 11:26:00,
2013-11-07 06:31:00,34.0,34.0,30.17,WNW,292,2.0,7.0,100,0.00,,,0.00,Weather View 32 v70,2013-11-07 11:31:00,
2013-11-07 06:34:00,34.0,34.0,30.17,NW,315,0.0,7.0,100,0.00,,,0.00,Weather View 32 v70,2013-11-07 11:34:00,
2013-11-07 06:39:00,34.0,34.0,30.17,NW,315,1.0,7.0,100,0.00,,,0.00,Weather View 32 v70,2013-11-07 11:39:00,
2013-11-07 06:44:00,34.0,34.0,30.17,NW,315,0.0,6.0,100,0.00,,,0.00,Weather View 32 v70,2013-11-07 11:44:00,
2013-11-07 06:49:00,33.0,33.0,30.17,NW,315,1.0,6.0,100,0.00,,,0.00,Weather View 32 v70,2013-11-07 11:49:00,
2013-11-07 06:54:00,33.0,33.0,30.18,NW,315,2.0,6.0,100,0.00,,,0.00,Weather View 32 v70,2013-11-07 11:54:00,
2013-11-07 06:59:00,33.0,33.0,30.18,NW,315,0.0,6.0,100,0.00,,,0.00,Weather View 32 v70,2013-11-07 11:59:00,
2013-11-07 07:04:00,33.0,33.0,30.18,NW,315,0.0,6.0,100,0.00,,,0.00,Weather View 32 v70,2013-11-07 12:04:00,
2013-11-07 07:09:00,32.0,32.0,30.18,NW,315,0.0,6.0,100,0.00,,,0.00,Weather View 32 v70,2013-11-07 12:09:00,
2013-11-07 07:14:00,32.0,32.0,30.18,NW,315,0.0,6.0,100,0.00,,,0.00,Weather View 32 v70,2013-11-07 12:14:00,
2013-11-07 07:19:00,32.0,32.0,30.19,WNW,292,2.0,5.0,100,0.00,,,0.00,Weather View 32 v70,2013-11-07 12:19:00,
2013-11-07 07:24:00,32.0,32.0,30.19,WNW,292,0.0,5.0,100,0.00,,,0.00,Weather View 32 v70,2013-11-07 12:24:00,
2013-11-07 07:29:00,32.0,32.0,30.19,WNW,292,0.0,4.0,100,0.00,,,0.00,Weather View 32 v70,2013-11-07 12:29:00,
2013-11-07 07:34:00,32.0,32.0,30.20,NW,315,2.0,4.0,100,0.00,,,0.00,Weather View 32 v70,2013-11-07 12:34:00,
2013-11-07 07:39:00,32.0,32.0,30.20,NW,315,0.0,4.0,100,0.00,,,0.00,Weather View 32 v70,2013-11-07 12:39:00,
2013-11-07 07:44:00,32.0,32.0,30.20,NW,315,0.0,4.0,100,0.00,,,0.00,Weather View 32 v70,2013-11-07 12:44:00,
2013-11-07 07:49:00,32.0,32.0,30.20,NW,315,1.0,4.0,100,0.00,,,0.00,Weather View 32 v70,2013-11-07 12:49:00,
2013-11-07 07:54:00,32.0,32.0,30.21,WNW,292,1.0,5.0,100,0.00,,,0.00,Weather View 32 v70,2013-11-07 12:54:00,
2013-11-07 07:59:00,33.0,33.0,30.21,WNW,292,2.0,5.0,100,0.00,,,0.00,Weather View 32 v70,2013-11-07 12:59:00,
2013-11-07 08:04:00,33.0,33.0,30.21,West,270,1.0,5.0,100,0.00,,,0.00,Weather View 32 v70,2013-11-07 13:04:00,
2013-11-07 08:09:00,34.0,34.0,30.22,WNW,292,0.0,5.0,100,0.00,,,0.00,Weather View 32 v70,2013-11-07 13:09:00,
2013-11-07 08:14:00,35.0,35.0,30.22,NW,315,0.0,6.0,100,0.00,,,0.00,Weather View 32 v70,2013-11-07 13:14:00,
2013-11-07 08:19:00,35.0,35.0,30.23,NW,315,2.0,6.0,100,0.00,,,0.00,Weather View 32 v70,2013-11-07 13:19:00,
2013-11-07 08:24:00,36.0,36.0,30.23,NW,315,0.0,7.0,100,0.00,,,0.00,Weather View 32 v70,2013-11-07 13:24:00,
2013-11-07 08:29:00,36.0,36.0,30.24,West,270,0.0,7.0,100,0.00,,,0.00,Weather View 32 v70,2013-11-07 13:29:00,
2013-11-07 08:34:00,37.0,37.0,30.24,NW,315,0.0,8.0,100,0.00,,,0.00,Weather View 32 v70,2013-11-07 13:34:00,
2013-11-07 08:39:00,37.0,37.0,30.25,NW,315,0.0,8.0,100,0.00,,,0.00,Weather View 32 v70,2013-11-07 13:39:00,
2013-11-07 08:44:00,38.0,38.0,30.26,West,270,1.0,8.0,100,0.00,,,0.00,Weather View 32 v70,2013-11-07 13:44:00,
2013-11-07 08:49:00,39.0,39.0,30.26,West,270,1.0,8.0,100,0.00,,,0.00,Weather View 32 v70,2013-11-07 13:49:00,
2013-11-07 08:54:00,39.0,39.0,30.26,NNE,22,5.0,8.0,100,0.00,,,0.00,Weather View 32 v70,2013-11-07 13:54:00,
2013-11-07 08:59:00,40.0,40.0,30.26,North,360,1.0,8.0,100,0.00,,,0.00,Weather View 32 v70,2013-11-07 13:59:00,
2013-11-07 09:04:00,40.0,40.0,30.26,West,270,4.0,8.0,100,0.00,,,0.00,Weather View 32 v70,2013-11-07 14:04:00,
2013-11-07 09:09:00,41.0,41.0,30.27,WNW,292,5.0,8.0,100,0.00,,,0.00,Weather View 32 v70,2013-11-07 14:09:00,
2013-11-07 09:14:00,41.0,41.0,30.27,WNW,292,1.0,8.0,100,0.00,,,0.00,Weather View 32 v70,2013-11-07 14:14:00,
2013-11-07 09:19:00,41.0,40.7,30.27,North,360,3.0,8.0,99,0.00,,,0.00,Weather View 32 v70,2013-11-07 14:19:00,
2013-11-07 09:24:00,42.0,40.7,30.28,WNW,292,0.0,8.0,95,0.00,,,0.00,Weather View 32 v70,2013-11-07 14:24:00,
2013-11-07 09:29:00,42.0,41.2,30.28,West,270,2.0,8.0,97,0.00,,,0.00,Weather View 32 v70,2013-11-07 14:29:00,
2013-11-07 09:34:00,42.0,41.7,30.28,North,360,1.0,7.0,99,0.00,,,0.00,Weather View 32 v70,2013-11-07 14:34:00,
2013-11-07 09:39:00,43.0,43.0,30.28,North,360,5.0,7.0,100,0.00,,,0.00,Weather View 32 v70,2013-11-07 14:39:00,
2013-11-07 09:44:00,43.0,43.0,30.28,NW,315,2.0,7.0,100,0.00,,,0.00,Weather View 32 v70,2013-11-07 14:44:00,
2013-11-07 09:49:00,44.0,44.0,30.28,WNW,292,4.0,7.0,100,0.00,,,0.00,Weather View 32 v70,2013-11-07 14:49:00,
2013-11-07 09:54:00,44.0,44.0,30.29,WNW,292,4.0,7.0,100,0.00,,,0.00,Weather View 32 v70,2013-11-07 14:54:00,
2013-11-07 09:59:00,44.0,42.7,30.29,North,360,2.0,7.0,95,0.00,,,0.00,Weather View 32 v70,2013-11-07 14:59:00,
2013-11-07 10:04:00,45.0,43.9,30.29,NW,315,6.0,7.0,96,0.00,,,0.00,Weather View 32 v70,2013-11-07 15:04:00,
2013-11-07 10:09:00,45.0,42.5,30.29,West,270,3.0,7.0,91,0.00,,,0.00,Weather View 32 v70,2013-11-07 15:09:00,
2013-11-07 10:14:00,45.0,41.9,30.29,West,270,6.0,7.0,89,0.00,,,0.00,Weather View 32 v70,2013-11-07 15:14:00,
2013-11-07 10:19:00,45.0,42.2,30.29,West,270,2.0,7.0,90,0.00,,,0.00,Weather View 32 v70,2013-11-07 15:19:00,
2013-11-07 10:24:00,45.0,38.2,30.29,North,360,3.0,7.0,77,0.00,,,0.00,Weather View 32 v70,2013-11-07 15:24:00,
2013-11-07 10:29:00,46.0,39.5,30.29,North,360,4.0,7.0,78,0.00,,,0.00,Weather View 32 v70,2013-11-07 15:29:00,
2013-11-07 10:34:00,46.0,39.2,30.29,North,360,3.0,7.0,77,0.00,,,0.00,Weather View 32 v70,2013-11-07 15:34:00,
2013-11-07 10:39:00,46.0,37.8,30.29,WNW,292,0.0,7.0,73,0.00,,,0.00,Weather View 32 v70,2013-11-07 15:39:00,
2013-11-07 10:44:00,47.0,39.8,30.29,NW,315,3.0,7.0,76,0.00,,,0.00,Weather View 32 v70,2013-11-07 15:44:00,
2013-11-07 10:49:00,47.0,40.2,30.29,WNW,292,3.0,7.0,77,0.00,,,0.00,Weather View 32 v70,2013-11-07 15:49:00,
2013-11-07 10:54:00,47.0,38.4,30.30,North,360,0.0,7.0,72,0.00,,,0.00,Weather View 32 v70,2013-11-07 15:54:00,
2013-11-07 10:59:00,48.0,36.0,30.30,NNE,22,4.0,7.0,63,0.00,,,0.00,Weather View 32 v70,2013-11-07 15:59:00,
2013-11-07 11:04:00,48.0,36.0,30.30,WNW,292,4.0,7.0,63,0.00,,,0.00,Weather View 32 v70,2013-11-07 16:04:00,
2013-11-07 11:09:00,48.0,35.6,30.30,NW,315,0.0,7.0,62,0.00,,,0.00,Weather View 32 v70,2013-11-07 16:09:00,
2013-11-07 11:14:00,48.0,37.2,30.30,WSW,247,5.0,7.0,66,0.00,,,0.00,Weather View 32 v70,2013-11-07 16:14:00,
2013-11-07 11:19:00,49.0,37.7,30.30,WNW,292,2.0,7.0,65,0.00,,,0.00,Weather View 32 v70,2013-11-07 16:19:00,
2013-11-07 11:24:00,49.0,34.8,30.29,NW,315,4.0,7.0,58,0.00,,,0.00,Weather View 32 v70,2013-11-07 16:24:00,
2013-11-07 11:29:00,49.0,34.8,30.29,WSW,247,1.0,7.0,58,0.00,,,0.00,Weather View 32 v70,2013-11-07 16:29:00,
2013-11-07 11:34:00,49.0,37.7,30.29,NW,315,3.0,7.0,65,0.00,,,0.00,Weather View 32 v70,2013-11-07 16:34:00,
2013-11-07 11:39:00,50.0,34.9,30.29,WNW,292,2.0,7.0,56,0.00,,,0.00,Weather View 32 v70,2013-11-07 16:39:00,
2013-11-07 11:44:00,50.0,33.5,30.29,NW,315,6.0,7.0,53,0.00,,,0.00,Weather View 32 v70,2013-11-07 16:44:00,
2013-11-07 11:49:00,50.0,34.0,30.29,West,270,5.0,8.0,54,0.00,,,0.00,Weather View 32 v70,2013-11-07 16:49:00,
2013-11-07 11:54:00,49.0,32.6,30.29,West,270,4.0,9.0,53,0.00,,,0.00,Weather View 32 v70,2013-11-07 16:54:00,
2013-11-07 11:59:00,50.0,34.4,30.29,NW,315,1.0,9.0,55,0.00,,,0.00,Weather View 32 v70,2013-11-07 16:59:00,
2013-11-07 12:04:00,50.0,32.6,30.29,NW,315,8.0,10.0,51,0.00,,,0.00,Weather View 32 v70,2013-11-07 17:04:00,
2013-11-07 12:09:00,50.0,32.6,30.29,North,360,8.0,10.0,51,0.00,,,0.00,Weather View 32 v70,2013-11-07 17:09:00,
2013-11-07 12:14:00,50.0,32.1,30.28,NNW,337,4.0,10.0,50,0.00,,,0.00,Weather View 32 v70,2013-11-07 17:14:00,
2013-11-07 12:19:00,50.0,33.5,30.28,NW,315,8.0,10.0,53,0.00,,,0.00,Weather View 32 v70,2013-11-07 17:19:00,
2013-11-07 12:24:00,50.0,31.6,30.28,NW,315,3.0,10.0,49,0.00,,,0.00,Weather View 32 v70,2013-11-07 17:24:00,
2013-11-07 12:29:00,50.0,31.0,30.28,WNW,292,6.0,10.0,48,0.00,,,0.00,Weather View 32 v70,2013-11-07 17:29:00,
2013-11-07 12:34:00,50.0,31.0,30.27,West,270,7.0,11.0,48,0.00,,,0.00,Weather View 32 v70,2013-11-07 17:34:00,
2013-11-07 12:39:00,50.0,31.6,30.27,West,270,3.0,11.0,49,0.00,,,0.00,Weather View 32 v70,2013-11-07 17:39:00,
2013-11-07 12:44:00,50.0,31.0,30.26,West,270,6.0,11.0,48,0.00,,,0.00,Weather View 32 v70,2013-11-07 17:44:00,
2013-11-07 12:49:00,50.0,33.0,30.26,West,270,7.0,11.0,52,0.00,,,0.00,Weather View 32 v70,2013-11-07 17:49:00,
2013-11-07 12:54:00,51.0,33.0,30.26,WSW,247,2.0,11.0,50,0.00,,,0.00,Weather View 32 v70,2013-11-07 17:54:00,
2013-11-07 12:58:00,51.0,30.4,30.26,WNW,292,7.0,11.0,45,0.00,,,0.00,Weather View 32 v70,2013-11-07 17:58:00,
2013-11-07 13:03:00,51.0,31.4,30.26,NW,315,4.0,11.0,47,0.00,,,0.00,Weather View 32 v70,2013-11-07 18:03:00,
2013-11-07 13:08:00,52.0,32.9,30.26,NW,315,2.0,11.0,48,0.00,,,0.00,Weather View 32 v70,2013-11-07 18:08:00,
2013-11-07 13:13:00,52.0,33.4,30.25,North,360,5.0,11.0,49,0.00,,,0.00,Weather View 32 v70,2013-11-07 18:13:00,
2013-11-07 13:18:00,52.0,31.8,30.26,WNW,292,1.0,11.0,46,0.00,,,0.00,Weather View 32 v70,2013-11-07 18:18:00,
2013-11-07 13:23:00,52.0,30.2,30.25,North,360,4.0,11.0,43,0.00,,,0.00,Weather View 32 v70,2013-11-07 18:23:00,
2013-11-07 13:28:00,52.0,32.4,30.25,North,360,4.0,11.0,47,0.00,,,0.00,Weather View 32 v70,2013-11-07 18:28:00,
2013-11-07 13:33:00,52.0,33.9,30.25,West,270,0.0,10.0,50,0.00,,,0.00,Weather View 32 v70,2013-11-07 18:33:00,
2013-11-07 13:38:00,52.0,33.4,30.25,West,270,5.0,10.0,49,0.00,,,0.00,Weather View 32 v70,2013-11-07 18:38:00,
2013-11-07 13:43:00,53.0,32.7,30.25,NW,315,4.0,10.0,46,0.00,,,0.00,Weather View 32 v70,2013-11-07 18:43:00,
2013-11-07 13:48:00,53.0,32.7,30.25,WNW,292,5.0,10.0,46,0.00,,,0.00,Weather View 32 v70,2013-11-07 18:48:00,
2013-11-07 13:53:00,53.0,32.2,30.25,West,270,4.0,10.0,45,0.00,,,0.00,Weather View 32 v70,2013-11-07 18:53:00,
2013-11-07 13:58:00,53.0,31.1,30.25,North,360,1.0,10.0,43,0.00,,,0.00,Weather View 32 v70,2013-11-07 18:58:00,
2013-11-07 14:03:00,53.0,29.3,30.25,NW,315,6.0,10.0,40,0.00,,,0.00,Weather View 32 v70,2013-11-07 19:03:00,
2013-11-07 14:08:00,53.0,31.6,30.25,WNW,292,7.0,10.0,44,0.00,,,0.00,Weather View 32 v70,2013-11-07 19:08:00,
2013-11-07 14:13:00,53.0,28.7,30.25,WSW,247,5.0,12.0,39,0.00,,,0.00,Weather View 32 v70,2013-11-07 19:13:00,
2013-11-07 14:18:00,53.0,31.6,30.25,SW,225,0.0,12.0,44,0.00,,,0.00,Weather View 32 v70,2013-11-07 19:18:00,
2013-11-07 14:23:00,53.0,31.1,30.25,NW,315,1.0,12.0,43,0.00,,,0.00,Weather View 32 v70,2013-11-07 19:23:00,
2013-11-07 14:28:00,53.0,28.0,30.25,SW,225,4.0,12.0,38,0.00,,,0.00,Weather View 32 v70,2013-11-07 19:28:00,
2013-11-07 14:33:00,52.0,27.8,30.24,WNW,292,3.0,12.0,39,0.00,,,0.00,Weather View 32 v70,2013-11-07 19:33:00,
2013-11-07 14:38:00,52.0,29.6,30.24,WNW,292,6.0,12.0,42,0.00,,,0.00,Weather View 32 v70,2013-11-07 19:38:00,
2013-11-07 14:43:00,52.0,29.6,30.24,WSW,247,1.0,12.0,42,0.00,,,0.00,Weather View 32 v70,2013-11-07 19:43:00,
2013-11-07 14:48:00,51.0,27.5,30.24,WNW,292,7.0,12.0,40,0.00,,,0.00,Weather View 32 v70,2013-11-07 19:48:00,
2013-11-07 14:53:00,51.0,28.7,30.24,WNW,292,7.0,12.0,42,0.00,,,0.00,Weather View 32 v70,2013-11-07 19:53:00,
2013-11-07 14:58:00,51.0,29.2,30.24,West,270,2.0,12.0,43,0.00,,,0.00,Weather View 32 v70,2013-11-07 19:58:00,
2013-11-07 15:03:00,51.0,28.7,30.24,West,270,5.0,12.0,42,0.00,,,0.00,Weather View 32 v70,2013-11-07 20:03:00,
2013-11-07 15:08:00,51.0,29.8,30.23,West,270,3.0,12.0,44,0.00,,,0.00,Weather View 32 v70,2013-11-07 20:08:00,
2013-11-07 15:13:00,51.0,30.4,30.23,WNW,292,6.0,12.0,45,0.00,,,0.00,Weather View 32 v70,2013-11-07 20:13:00,
2013-11-07 15:18:00,50.0,28.9,30.23,West,270,5.0,12.0,44,0.00,,,0.00,Weather View 32 v70,2013-11-07 20:18:00,
2013-11-07 15:23:00,50.0,30.5,30.23,NW,315,7.0,12.0,47,0.00,,,0.00,Weather View 32 v70,2013-11-07 20:23:00,
2013-11-07 15:28:00,50.0,30.5,30.22,WNW,292,6.0,12.0,47,0.00,,,0.00,Weather View 32 v70,2013-11-07 20:28:00,
2013-11-07 15:33:00,50.0,30.0,30.22,WNW,292,7.0,12.0,46,0.00,,,0.00,Weather View 32 v70,2013-11-07 20:33:00,
2013-11-07 15:38:00,50.0,30.5,30.22,North,360,3.0,12.0,47,0.00,,,0.00,Weather View 32 v70,2013-11-07 20:38:00,
2013-11-07 15:43:00,50.0,29.5,30.22,West,270,5.0,12.0,45,0.00,,,0.00,Weather View 32 v70,2013-11-07 20:43:00,
2013-11-07 15:48:00,50.0,30.0,30.22,West,270,1.0,12.0,46,0.00,,,0.00,Weather View 32 v70,2013-11-07 20:48:00,
2013-11-07 15:53:00,49.0,29.1,30.22,WNW,292,6.0,12.0,46,0.00,,,0.00,Weather View 32 v70,2013-11-07 20:53:00,
2013-11-07 15:58:00,49.0,29.6,30.22,West,270,7.0,12.0,47,0.00,,,0.00,Weather View 32 v70,2013-11-07 20:58:00,
2013-11-07 16:03:00,49.0,29.1,30.22,West,270,5.0,12.0,46,0.00,,,0.00,Weather View 32 v70,2013-11-07 21:03:00,
2013-11-07 16:08:00,49.0,28.5,30.22,West,270,5.0,12.0,45,0.00,,,0.00,Weather View 32 v70,2013-11-07 21:08:00,
2013-11-07 16:13:00,48.0,28.2,30.22,WNW,292,5.0,12.0,46,0.00,,,0.00,Weather View 32 v70,2013-11-07 21:13:00,
2013-11-07 16:18:00,48.0,28.7,30.21,WNW,292,6.0,12.0,47,0.00,,,0.00,Weather View 32 v70,2013-11-07 21:18:00,
2013-11-07 16:23:00,48.0,29.7,30.21,West,270,4.0,12.0,49,0.00,,,0.00,Weather View 32 v70,2013-11-07 21:23:00,
2013-11-07 16:28:00,48.0,28.7,30.21,SSW,202,3.0,12.0,47,0.00,,,0.00,Weather View 32 v70,2013-11-07 21:28:00,
2013-11-07 16:33:00,48.0,29.7,30.22,West,270,6.0,12.0,49,0.00,,,0.00,Weather View 32 v70,2013-11-07 21:33:00,
2013-11-07 16:38:00,48.0,29.2,30.22,WNW,292,6.0,12.0,48,0.00,,,0.00,Weather View 32 v70,2013-11-07 21:38:00,
2013-11-07 16:43:00,48.0,29.2,30.21,NW,315,9.0,12.0,48,0.00,,,0.00,Weather View 32 v70,2013-11-07 21:43:00,
2013-11-07 16:48:00,48.0,29.7,30.21,WNW,292,7.0,12.0,49,0.00,,,0.00,Weather View 32 v70,2013-11-07 21:48:00,
2013-11-07 16:53:00,48.0,31.2,30.21,West,270,2.0,12.0,52,0.00,,,0.00,Weather View 32 v70,2013-11-07 21:53:00,
2013-11-07 16:58:00,48.0,30.7,30.21,SW,225,3.0,12.0,51,0.00,,,0.00,Weather View 32 v70,2013-11-07 21:58:00,
2013-11-07 17:03:00,47.0,29.3,30.21,West,270,2.0,12.0,50,0.00,,,0.00,Weather View 32 v70,2013-11-07 22:03:00,
2013-11-07 17:08:00,47.0,29.3,30.21,West,270,1.0,12.0,50,0.00,,,0.00,Weather View 32 v70,2013-11-07 22:08:00,
2013-11-07 17:13:00,47.0,28.8,30.21,West,270,3.0,12.0,49,0.00,,,0.00,Weather View 32 v70,2013-11-07 22:13:00,
2013-11-07 17:18:00,47.0,30.3,30.21,West,270,1.0,12.0,52,0.00,,,0.00,Weather View 32 v70,2013-11-07 22:18:00,
2013-11-07 17:23:00,46.0,28.9,30.21,WNW,292,2.0,12.0,51,0.00,,,0.00,Weather View 32 v70,2013-11-07 22:23:00,
2013-11-07 17:28:00,46.0,28.4,30.21,West,270,1.0,12.0,50,0.00,,,0.00,Weather View 32 v70,2013-11-07 22:28:00,
2013-11-07 17:33:00,46.0,28.9,30.21,West,270,5.0,11.0,51,0.00,,,0.00,Weather View 32 v70,2013-11-07 22:33:00,
2013-11-07 17:38:00,45.0,28.4,30.21,West,270,2.0,11.0,52,0.00,,,0.00,Weather View 32 v70,2013-11-07 22:38:00,
2013-11-07 17:43:00,45.0,28.9,30.21,West,270,0.0,11.0,53,0.00,,,0.00,Weather View 32 v70,2013-11-07 22:43:00,
2013-11-07 17:48:00,45.0,28.9,30.21,WNW,292,0.0,11.0,53,0.00,,,0.00,Weather View 32 v70,2013-11-07 22:48:00,
2013-11-07 17:53:00,44.0,28.4,30.21,WNW,292,1.0,11.0,54,0.00,,,0.00,Weather View 32 v70,2013-11-07 22:53:00,
2013-11-07 17:58:00,45.0,29.3,30.21,WNW,292,2.0,11.0,54,0.00,,,0.00,Weather View 32 v70,2013-11-07 22:58:00,
2013-11-07 18:03:00,45.0,29.3,30.22,WNW,292,1.0,7.0,54,0.00,,,0.00,Weather View 32 v70,2013-11-07 23:03:00,
2013-11-07 18:08:00,45.0,29.3,30.21,WNW,292,0.0,7.0,54,0.00,,,0.00,Weather View 32 v70,2013-11-07 23:08:00,
2013-11-07 18:13:00,45.0,29.8,30.21,WNW,292,2.0,7.0,55,0.00,,,0.00,Weather View 32 v70,2013-11-07 23:13:00,
2013-11-07 18:18:00,45.0,29.8,30.21,West,270,1.0,7.0,55,0.00,,,0.00,Weather View 32 v70,2013-11-07 23:18:00,
2013-11-07 18:23:00,45.0,29.8,30.21,WSW,247,0.0,6.0,55,0.00,,,0.00,Weather View 32 v70,2013-11-07 23:23:00,
2013-11-07 18:28:00,45.0,30.2,30.21,WSW,247,0.0,6.0,56,0.00,,,0.00,Weather View 32 v70,2013-11-07 23:28:00,
2013-11-07 18:33:00,44.0,29.3,30.21,WSW,247,0.0,6.0,56,0.00,,,0.00,Weather View 32 v70,2013-11-07 23:33:00,
2013-11-07 18:38:00,44.0,29.7,30.21,WSW,247,0.0,6.0,57,0.00,,,0.00,Weather View 32 v70,2013-11-07 23:38:00,
2013-11-07 18:43:00,44.0,30.2,30.20,WSW,247,0.0,6.0,58,0.00,,,0.00,Weather View 32 v70,2013-11-07 23:43:00,
2013-11-07 18:48:00,44.0,30.2,30.21,WSW,247,0.0,5.0,58,0.00,,,0.00,Weather View 32 v70,2013-11-07 23:48:00,
2013-11-07 18:53:00,44.0,30.2,30.21,WSW,247,0.0,5.0,58,0.00,,,0.00,Weather View 32 v70,2013-11-07 23:53:00,
2013-11-07 18:58:00,44.0,30.6,30.21,WSW,247,0.0,4.0,59,0.00,,,0.00,Weather View 32 v70,2013-11-07 23:58:00,
2013-11-07 19:03:00,44.0,30.6,30.21,WSW,247,0.0,4.0,59,0.00,,,0.00,Weather View 32 v70,2013-11-08 00:03:00,
2013-11-07 19:08:00,44.0,31.0,30.21,WSW,247,0.0,4.0,60,0.00,,,0.00,Weather View 32 v70,2013-11-08 00:08:00,
2013-11-07 19:13:00,44.0,31.8,30.20,WSW,247,0.0,4.0,62,0.00,,,0.00,Weather View 32 v70,2013-11-08 00:13:00,
2013-11-07 19:18:00,43.0,30.9,30.20,WSW,247,0.0,4.0,62,0.00,,,0.00,Weather View 32 v70,2013-11-08 00:18:00,
2013-11-07 19:23:00,43.0,31.6,30.21,WSW,247,0.0,1.0,64,0.00,,,0.00,Weather View 32 v70,2013-11-08 00:23:00,
2013-11-07 19:28:00,43.0,32.0,30.20,WSW,247,0.0,2.0,65,0.00,,,0.00,Weather View 32 v70,2013-11-08 00:28:00,
2013-11-07 19:33:00,42.0,31.1,30.20,WSW,247,0.0,2.0,65,0.00,,,0.00,Weather View 32 v70,2013-11-08 00:33:00,
2013-11-07 19:38:00,42.0,31.5,30.20,WSW,247,0.0,2.0,66,0.00,,,0.00,Weather View 32 v70,2013-11-08 00:38:00,
2013-11-07 19:43:00,42.0,31.5,30.20,WSW,247,0.0,2.0,66,0.00,,,0.00,Weather View 32 v70,2013-11-08 00:43:00,
2013-11-07 19:48:00,42.0,31.5,30.20,WSW,247,2.0,3.0,66,0.00,,,0.00,Weather View 32 v70,2013-11-08 00:48:00,
2013-11-07 19:53:00,42.0,31.5,30.20,WSW,247,0.0,3.0,66,0.00,,,0.00,Weather View 32 v70,2013-11-08 00:53:00,
2013-11-07 19:58:00,42.0,31.8,30.20,WSW,247,0.0,3.0,67,0.00,,,0.00,Weather View 32 v70,2013-11-08 00:58:00,
2013-11-07 20:03:00,42.0,32.2,30.20,WSW,247,0.0,3.0,68,0.00,,,0.00,Weather View 32 v70,2013-11-08 01:03:00,
2013-11-07 20:08:00,42.0,32.2,30.20,WSW,247,0.0,3.0,68,0.00,,,0.00,Weather View 32 v70,2013-11-08 01:08:00,
2013-11-07 20:13:00,42.0,32.6,30.20,WSW,247,0.0,3.0,69,0.00,,,0.00,Weather View 32 v70,2013-11-08 01:13:00,
2013-11-07 20:18:00,41.0,32.0,30.20,WSW,247,0.0,3.0,70,0.00,,,0.00,Weather View 32 v70,2013-11-08 01:18:00,
2013-11-07 20:23:00,41.0,32.3,30.20,West,270,0.0,3.0,71,0.00,,,0.00,Weather View 32 v70,2013-11-08 01:23:00,
2013-11-07 20:28:00,41.0,32.3,30.20,SW,225,0.0,3.0,71,0.00,,,0.00,Weather View 32 v70,2013-11-08 01:28:00,
2013-11-07 20:33:00,41.0,32.3,30.20,SW,225,1.0,3.0,71,0.00,,,0.00,Weather View 32 v70,2013-11-08 01:33:00,
2013-11-07 20:38:00,42.0,32.9,30.20,SW,225,0.0,3.0,70,0.00,,,0.00,Weather View 32 v70,2013-11-08 01:38:00,
2013-11-07 20:43:00,41.0,32.0,30.20,SW,225,0.0,3.0,70,0.00,,,0.00,Weather View 32 v70,2013-11-08 01:43:00,
2013-11-07 20:48:00,42.0,33.3,30.20,West,270,0.0,6.0,71,0.00,,,0.00,Weather View 32 v70,2013-11-08 01:48:00,
2013-11-07 20:53:00,42.0,33.3,30.20,West,270,2.0,6.0,71,0.00,,,0.00,Weather View 32 v70,2013-11-08 01:53:00,
2013-11-07 20:58:00,42.0,33.3,30.20,West,270,0.0,6.0,71,0.00,,,0.00,Weather View 32 v70,2013-11-08 01:58:00,
2013-11-07 21:03:00,42.0,32.9,30.20,WNW,292,1.0,6.0,70,0.00,,,0.00,Weather View 32 v70,2013-11-08 02:03:00,
2013-11-07 21:08:00,42.0,33.3,30.20,West,270,1.0,6.0,71,0.00,,,0.00,Weather View 32 v70,2013-11-08 02:08:00,
2013-11-07 21:13:00,42.0,33.3,30.20,West,270,2.0,6.0,71,0.00,,,0.00,Weather View 32 v70,2013-11-08 02:13:00,
2013-11-07 21:18:00,42.0,33.6,30.20,West,270,3.0,6.0,72,0.00,,,0.00,Weather View 32 v70,2013-11-08 02:18:00,
2013-11-07 21:23:00,42.0,34.0,30.20,NW,315,4.0,6.0,73,0.00,,,0.00,Weather View 32 v70,2013-11-08 02:23:00,
2013-11-07 21:28:00,42.0,35.0,30.20,WNW,292,2.0,7.0,76,0.00,,,0.00,Weather View 32 v70,2013-11-08 02:28:00,
2013-11-07 21:33:00,42.0,34.6,30.20,WNW,292,0.0,7.0,75,0.00,,,0.00,Weather View 32 v70,2013-11-08 02:33:00,
2013-11-07 21:38:00,42.0,35.0,30.21,West,270,6.0,7.0,76,0.00,,,0.00,Weather View 32 v70,2013-11-08 02:38:00,
2013-11-07 21:43:00,42.0,35.6,30.21,SW,225,5.0,7.0,78,0.00,,,0.00,Weather View 32 v70,2013-11-08 02:43:00,
2013-11-07 21:48:00,42.0,35.3,30.21,WNW,292,5.0,8.0,77,0.00,,,0.00,Weather View 32 v70,2013-11-08 02:48:00,
2013-11-07 21:53:00,42.0,35.3,30.22,West,270,8.0,9.0,77,0.00,,,0.00,Weather View 32 v70,2013-11-08 02:53:00,
2013-11-07 21:58:00,42.0,35.6,30.22,WNW,292,5.0,9.0,78,0.00,,,0.00,Weather View 32 v70,2013-11-08 02:58:00,
2013-11-07 22:03:00,42.0,36.0,30.22,WNW,292,5.0,9.0,79,0.00,,,0.00,Weather View 32 v70,2013-11-08 03:03:00,
2013-11-07 22:08:00,42.0,36.3,30.22,WNW,292,3.0,9.0,80,0.00,,,0.00,Weather View 32 v70,2013-11-08 03:08:00,
2013-11-07 22:13:00,42.0,36.6,30.22,WNW,292,2.0,9.0,81,0.00,,,0.00,Weather View 32 v70,2013-11-08 03:13:00,
2013-11-07 22:18:00,41.0,36.2,30.22,WNW,292,2.0,12.0,83,0.00,,,0.00,Weather View 32 v70,2013-11-08 03:18:00,
2013-11-07 22:23:00,41.0,36.2,30.23,WSW,247,4.0,12.0,83,0.00,,,0.00,Weather View 32 v70,2013-11-08 03:23:00,
2013-11-07 22:28:00,41.0,36.2,30.23,WNW,292,5.0,12.0,83,0.00,,,0.00,Weather View 32 v70,2013-11-08 03:28:00,
2013-11-07 22:33:00,41.0,36.2,30.23,West,270,3.0,12.0,83,0.00,,,0.00,Weather View 32 v70,2013-11-08 03:33:00,
2013-11-07 22:38:00,41.0,36.2,30.23,West,270,3.0,12.0,83,0.00,,,0.00,Weather View 32 v70,2013-11-08 03:38:00,
2013-11-07 22:43:00,41.0,36.2,30.24,West,270,4.0,12.0,83,0.00,,,0.00,Weather View 32 v70,2013-11-08 03:43:00,
2013-11-07 22:48:00,41.0,36.2,30.24,WNW,292,3.0,12.0,83,0.00,,,0.00,Weather View 32 v70,2013-11-08 03:48:00,
2013-11-07 22:53:00,41.0,35.9,30.24,NW,315,5.0,12.0,82,0.00,,,0.00,Weather View 32 v70,2013-11-08 03:53:00,
2013-11-07 22:58:00,40.0,34.6,30.24,West,270,5.0,12.0,81,0.00,,,0.00,Weather View 32 v70,2013-11-08 03:58:00,
2013-11-07 23:03:00,40.0,34.9,30.24,West,270,2.0,12.0,82,0.00,,,0.00,Weather View 32 v70,2013-11-08 04:03:00,
2013-11-07 23:08:00,40.0,34.6,30.24,WNW,292,4.0,12.0,81,0.00,,,0.00,Weather View 32 v70,2013-11-08 04:08:00,
2013-11-07 23:13:00,40.0,34.6,30.24,WNW,292,0.0,12.0,81,0.00,,,0.00,Weather View 32 v70,2013-11-08 04:13:00,
2013-11-07 23:18:00,40.0,34.9,30.24,WNW,292,2.0,9.0,82,0.00,,,0.00,Weather View 32 v70,2013-11-08 04:18:00,
2013-11-07 23:23:00,40.0,35.2,30.24,NNE,22,4.0,9.0,83,0.00,,,0.00,Weather View 32 v70,2013-11-08 04:23:00,
2013-11-07 23:28:00,39.0,34.3,30.24,NW,315,7.0,12.0,83,0.00,,,0.00,Weather View 32 v70,2013-11-08 04:28:00,
2013-11-07 23:33:00,39.0,34.6,30.24,West,270,6.0,12.0,84,0.00,,,0.00,Weather View 32 v70,2013-11-08 04:33:00,
2013-11-07 23:38:00,39.0,34.9,30.24,NW,315,6.0,12.0,85,0.00,,,0.00,Weather View 32 v70,2013-11-08 04:38:00,
2013-11-07 23:43:00,39.0,34.9,30.24,WNW,292,7.0,12.0,85,0.00,,,0.00,Weather View 32 v70,2013-11-08 04:43:00,
2013-11-07 23:48:00,39.0,34.9,30.24,West,270,6.0,12.0,85,0.00,,,0.00,Weather View 32 v70,2013-11-08 04:48:00,
2013-11-07 23:53:00,39.0,35.2,30.24,WNW,292,0.0,12.0,86,0.00,,,0.00,Weather View 32 v70,2013-11-08 04:53:00,
2013-11-07 23:58:00,39.0,35.5,30.24,West,270,4.0,12.0,87,0.00,,,0.00,Weather View 32 v70,2013-11-08 04:58:00,